DK9XR-14 Weather Reports


time (UTC)temp
C
wind
direction
speed
KPH
gust
KPH
rain 1hr
cm
rain 24hr
cm
rain mn
cm
humidity
%
barometer
mb
20260506235604 8 173 1.6 4.8 0.00 0.18 0.00 89 1011.9
20260506235104 8 250 1.6 4.8 0.00 0.18 0.00 89 1012.0
20260506234605 8 238 1.6 4.8 0.00 0.18 0.00 89 1012.0
20260506234103 8 251 1.6 6.4 0.00 0.18 0.00 89 1012.0
20260506233605 8 244 3.2 6.4 0.00 0.18 0.00 89 1012.0
20260506233105 8 226 1.6 4.8 0.00 0.18 0.00 89 1012.0
20260506232604 8 266 1.6 8.0 0.00 0.18 0.00 89 1012.0
20260506232104 8 206 1.6 8.0 0.00 0.18 0.00 88 1012.0
20260506231606 8 244 1.6 6.4 0.00 0.18 0.00 88 1011.9
20260506230602 8 282 3.2 9.7 0.00 0.18 0.00 88 1011.7
20260506225602 8 258 1.6 8.0 0.00 0.18 0.00 88 1011.8
20260506225101 8 227 4.8 9.7 0.00 0.18 0.00 88 1011.9
20260506224603 8 279 3.2 9.7 0.00 0.18 0.00 88 1011.9
20260506224101 8 279 4.8 9.7 0.00 0.18 0.00 88 1011.8
20260506223602 8 265 3.2 9.7 0.00 0.18 0.00 88 1011.8
20260506223101 8 227 3.2 11.3 0.00 0.18 0.00 88 1011.9
20260506222602 8 261 1.6 11.3 0.00 0.18 0.00 88 1011.8
20260506222102 8 261 3.2 8.0 0.00 0.18 0.00 88 1011.8
20260506221603 8 241 1.6 9.7 0.00 0.18 0.00 88 1011.7
20260506221100 8 245 3.2 9.7 0.00 0.18 0.00 88 1011.7
20260506220600 8 258 3.2 8.0 0.00 0.18 0.00 87 1011.7
20260506220101 8 272 1.6 9.7 0.00 0.18 0.00 87 1011.6
20260506215557 9 269 6.4 9.7 0.00 0.18 0.18 87 1011.6
20260506215058 9 282 4.8 9.7 0.00 0.18 0.18 87 1011.5
20260506214559 9 271 4.8 9.7 0.00 0.18 0.18 87 1011.5
20260506214056 9 266 3.2 11.3 0.00 0.18 0.18 87 1011.4
20260506213557 9 257 6.4 11.3 0.00 0.18 0.18 87 1011.4
20260506213057 9 206 3.2 8.0 0.00 0.18 0.18 87 1011.4
20260506212554 9 261 1.6 8.0 0.00 0.18 0.18 87 1011.4
20260506212054 9 286 3.2 8.0 0.00 0.18 0.18 87 1011.4
20260506211554 9 238 3.2 14.5 0.00 0.18 0.18 87 1011.2
20260506211052 9 262 4.8 14.5 0.00 0.18 0.18 87 1011.3
20260506210552 9 185 4.8 9.7 0.00 0.18 0.18 87 1011.2
20260506210052 9 255 3.2 9.7 0.00 0.18 0.18 87 1011.1
20260506205550 9 302 3.2 14.5 0.00 0.18 0.18 87 1011.0
20260506205050 9 276 3.2 14.5 0.00 0.18 0.18 87 1011.0
20260506204552 9 282 3.2 16.1 0.00 0.18 0.18 87 1011.1
20260506204049 9 240 8.0 16.1 0.00 0.18 0.18 87 1011.2
20260506203548 9 231 3.2 14.5 0.00 0.18 0.18 87 1011.1
20260506203049 9 283 6.4 11.3 0.00 0.18 0.18 87 1011.1
20260506202546 9 258 3.2 9.7 0.00 0.18 0.18 87 1011.2
20260506202046 9 279 3.2 11.3 0.00 0.18 0.18 87 1011.1
20260506201547 9 240 6.4 11.3 0.00 0.18 0.18 86 1011.1
20260506201043 9 247 3.2 8.0 0.00 0.18 0.18 87 1011.1
20260506200542 9 245 3.2 8.0 0.00 0.18 0.18 87 1011.1
20260506200047 9 261 1.6 16.1 0.00 0.18 0.18 87 1011.2
20260506195542 9 248 3.2 16.1 0.00 0.20 0.18 87 1011.2
20260506195041 9 272 6.4 11.3 0.00 0.20 0.18 87 1011.2
20260506194543 9 235 6.4 11.3 0.00 0.20 0.18 88 1011.1
20260506194041 9 254 1.6 11.3 0.00 0.20 0.18 88 1010.9
20260506193540 9 252 4.8 11.3 0.00 0.20 0.18 88 1010.9
20260506193040 9 234 3.2 9.7 0.00 0.20 0.18 88 1010.8
20260506192536 9 258 3.2 9.7 0.00 0.20 0.18 88 1010.7
20260506192035 9 214 3.2 8.0 0.00 0.20 0.18 88 1010.7
20260506191531 9 235 3.2 8.0 0.00 0.20 0.18 88 1010.7
20260506191035 9 207 3.2 8.0 0.00 0.20 0.18 88 1010.4
20260506190530 10 259 3.2 6.4 0.00 0.20 0.18 88 1010.4
20260506190029 10 213 1.6 8.0 0.00 0.20 0.18 88 1010.3
20260506185530 10 234 1.6 8.0 0.00 0.20 0.18 88 1010.2
20260506185029 10 240 3.2 14.5 0.00 0.20 0.18 88 1010.3
20260506184529 10 251 4.8 14.5 0.00 0.20 0.18 88 1010.3
20260506184030 10 251 4.8 9.7 0.00 0.20 0.18 89 1010.1
20260506183529 10 272 3.2 11.3 0.00 0.20 0.18 88 1010.0
20260506183027 10 217 4.8 11.3 0.00 0.20 0.18 88 1010.0
20260506182527 10 244 6.4 11.3 0.00 0.20 0.18 88 1009.9
20260506182029 10 299 4.8 22.5 0.00 0.20 0.18 88 1009.8
20260506181525 10 316 3.2 22.5 0.00 0.20 0.18 87 1009.8
20260506181024 10 258 8.0 22.5 0.00 0.20 0.18 87 1009.6
20260506180520 10 278 9.7 22.5 0.00 0.20 0.18 87 1009.6
20260506180019 10 254 11.3 20.9 0.00 0.20 0.18 87 1009.6
20260506175521 10 271 14.5 20.9 0.00 0.20 0.18 87 1009.5
20260506175018 10 282 6.4 19.3 0.00 0.20 0.18 87 1009.5
20260506174518 10 285 8.0 19.3 0.00 0.20 0.18 87 1009.5
20260506174020 10 283 11.3 19.3 0.00 0.20 0.18 86 1009.3
20260506173015 10 276 8.0 20.9 0.00 0.20 0.18 86 1009.2
20260506172517 10 306 8.0 16.1 0.00 0.20 0.18 87 1009.0
20260506172012 10 312 6.4 19.3 0.00 0.20 0.18 86 1009.1
20260506171513 10 295 4.8 20.9 0.00 0.20 0.18 86 1008.9
20260506171006 10 298 9.7 20.9 0.00 0.20 0.18 86 1008.8
20260506170509 10 302 8.0 24.1 0.00 0.20 0.18 86 1008.9
20260506170006 10 300 9.7 24.1 0.00 0.20 0.18 87 1008.9
20260506165503 10 278 9.7 22.5 0.00 0.18 0.18 87 1008.9
20260506165004 10 290 11.3 22.5 0.00 0.18 0.18 87 1009.0
20260506164504 10 290 8.0 24.1 0.00 0.18 0.18 88 1009.1
20260506164004 10 262 12.9 24.1 0.00 0.18 0.18 88 1009.1
20260506163504 10 279 8.0 20.9 0.10 0.18 0.18 87 1009.0
20260506163004 10 261 11.3 22.5 0.18 0.18 0.18 88 1009.0
20260506162503 10 262 9.7 25.7 0.18 0.18 0.18 87 1008.8
20260506162003 10 289 6.4 30.6 0.18 0.18 0.18 88 1008.8
20260506161505 11 314 19.3 30.6 0.18 0.18 0.18 87 1008.7
20260506161003 11 262 14.5 27.4 0.18 0.18 0.18 88 1008.7
20260506160504 11 292 16.1 27.4 0.18 0.18 0.18 88 1008.5
20260506160005 11 333 9.7 30.6 0.18 0.18 0.18 89 1008.3
20260506155504 11 279 11.3 35.4 0.18 0.00 0.18 89 1008.5
20260506155005 11 268 14.5 35.4 0.18 0.00 0.18 88 1008.2
20260506154504 11 288 14.5 32.2 0.18 0.00 0.18 87 1008.3
20260506154005 12 216 14.5 38.6 0.18 0.00 0.18 85 1008.3
20260506153503 13 278 19.3 45.1 0.08 0.00 0.05 79 1008.2
20260506153004 15 214 16.1 46.7 0.00 0.00 0.00 66 1007.9
20260506152504 17 228 24.1 46.7 0.00 0.00 0.00 57 1007.3
20260506152004 18 235 1.6 4.8 0.00 0.00 0.00 54 1006.8
20260506151503 18 265 1.6 8.0 0.00 0.00 0.00 51 1006.5
20260506151005 18 233 1.6 8.0 0.00 0.00 0.00 50 1006.2
20260506150503 19 162 1.6 8.0 0.00 0.00 0.00 50 1006.1
20260506150004 19 157 6.4 8.0 0.00 0.00 0.00 50 1006.2
20260506145503 18 221 0.0 6.4 0.00 0.00 0.00 55 1006.4
20260506145006 18 173 3.2 4.8 0.00 0.00 0.00 52 1006.5
20260506144503 18 195 1.6 4.8 0.00 0.00 0.00 53 1006.5
20260506144004 18 274 3.2 8.0 0.00 0.00 0.00 54 1006.6
20260506143504 18 224 3.2 11.3 0.00 0.00 0.00 53 1006.5
20260506143001 17 251 1.6 11.3 0.00 0.00 0.00 54 1006.6
20260506142503 18 266 6.4 9.7 0.00 0.00 0.00 54 1006.6
20260506142001 18 224 3.2 8.0 0.00 0.00 0.00 54 1006.5
20260506141501 17 223 1.6 9.7 0.00 0.00 0.00 58 1006.1
20260506141001 17 203 1.6 9.7 0.00 0.00 0.00 56 1006.6
20260506140501 17 243 3.2 6.4 0.00 0.00 0.00 58 1006.7
20260506140001 17 261 3.2 6.4 0.00 0.00 0.00 60 1006.8
20260506135500 17 266 1.6 3.2 0.00 0.00 0.00 59 1006.7
20260506135003 17 289 1.6 3.2 0.00 0.00 0.00 60 1006.7
20260506134459 17 262 0.0 4.8 0.00 0.00 0.00 60 1006.9
20260506133958 17 276 1.6 6.4 0.00 0.00 0.00 56 1006.9
20260506133454 17 248 1.6 8.0 0.00 0.00 0.00 57 1007.0
20260506132954 17 220 3.2 8.0 0.00 0.00 0.00 52 1006.9
20260506132455 17 164 1.6 6.4 0.00 0.00 0.00 53 1006.8
20260506131954 18 240 4.8 6.4 0.00 0.00 0.00 52 1006.8
20260506131451 18 164 1.6 6.4 0.00 0.00 0.00 52 1006.7
20260506130952 18 130 1.6 8.0 0.00 0.00 0.00 52 1006.7
20260506130451 18 159 3.2 8.0 0.00 0.00 0.00 52 1006.8
20260506125948 18 137 4.8 8.0 0.00 0.00 0.00 52 1006.7
20260506125447 18 151 3.2 8.0 0.00 0.00 0.00 53 1006.7
20260506124943 18 96 1.6 8.0 0.00 0.00 0.00 53 1006.6
20260506124442 18 147 4.8 8.0 0.00 0.00 0.00 53 1006.6
20260506123941 18 202 1.6 4.8 0.00 0.00 0.00 53 1006.6
20260506123441 18 252 0.0 4.8 0.00 0.03 0.00 52 1006.6
20260506122939 18 121 0.0 4.8 0.00 0.03 0.00 53 1006.7
20260506122440 18 147 3.2 6.4 0.00 0.03 0.00 53 1006.6
20260506121941 17 134 3.2 6.4 0.00 0.03 0.00 53 1006.7
20260506121437 17 127 1.6 9.7 0.00 0.03 0.00 54 1006.7
20260506120936 17 192 3.2 9.7 0.00 0.03 0.00 55 1006.7
20260506120437 18 117 4.8 11.3 0.00 0.03 0.00 55 1006.6
20260506115936 18 87 3.2 11.3 0.00 0.03 0.00 54 1006.8
20260506115434 18 140 3.2 6.4 0.00 0.03 0.00 54 1006.8
20260506114935 18 206 0.0 3.2 0.00 0.03 0.00 53 1006.7
20260506114432 18 155 0.0 6.4 0.00 0.03 0.00 55 1006.7
20260506113933 18 28 0.0 8.0 0.00 0.03 0.00 54 1006.8
20260506113428 18 247 3.2 8.0 0.00 0.03 0.00 53 1006.9
20260506112926 17 272 1.6 9.7 0.00 0.03 0.00 53 1006.8
20260506112429 17 140 4.8 9.7 0.00 0.03 0.00 54 1006.8
20260506111928 18 214 4.8 9.7 0.00 0.03 0.00 53 1006.8
20260506111425 18 125 6.4 9.7 0.00 0.03 0.00 54 1006.9
20260506110926 18 171 6.4 9.7 0.00 0.03 0.00 53 1007.0
20260506110425 18 151 6.4 9.7 0.00 0.03 0.00 54 1007.0
20260506105923 18 85 4.8 9.7 0.00 0.03 0.00 53 1007.0
20260506105420 18 193 4.8 8.0 0.00 0.03 0.00 55 1007.3
20260506104924 18 148 1.6 9.7 0.00 0.03 0.00 55 1007.2
20260506104421 18 183 4.8 9.7 0.00 0.03 0.00 54 1007.3
20260506103922 18 162 3.2 9.7 0.00 0.03 0.00 55 1007.2
20260506103420 17 116 3.2 9.7 0.00 0.03 0.00 56 1007.3
20260506102921 17 212 4.8 8.0 0.00 0.03 0.00 56 1007.4
20260506102420 17 203 3.2 6.4 0.00 0.03 0.00 57 1007.6
20260506101918 17 165 4.8 8.0 0.00 0.03 0.00 57 1007.8
20260506101417 17 148 3.2 14.5 0.00 0.03 0.00 56 1007.7
20260506100919 18 254 8.0 14.5 0.00 0.03 0.00 57 1007.8
20260506100417 17 250 1.6 11.3 0.00 0.03 0.00 60 1007.8
20260506095916 17 285 4.8 11.3 0.00 0.03 0.00 61 1007.7
20260506095417 17 286 0.0 6.4 0.00 0.03 0.00 63 1007.8
20260506094914 17 306 3.2 6.4 0.00 0.03 0.00 62 1007.8
20260506094413 17 226 1.6 3.2 0.00 0.03 0.00 63 1007.9
20260506093915 17 172 0.0 3.2 0.00 0.03 0.00 63 1007.8
20260506093413 17 228 1.6 6.4 0.00 0.03 0.00 62 1007.8
20260506092911 17 121 1.6 6.4 0.00 0.03 0.00 61 1007.8
20260506092413 17 145 3.2 8.0 0.00 0.03 0.00 61 1007.8
20260506091911 17 219 1.6 8.0 0.00 0.03 0.00 63 1007.8
20260506091413 16 224 3.2 8.0 0.00 0.03 0.00 65 1007.8
20260506090910 16 223 1.6 6.4 0.00 0.03 0.00 64 1007.9
20260506090409 16 123 3.2 8.0 0.00 0.03 0.00 66 1007.8
20260506085908 16 169 3.2 11.3 0.00 0.03 0.00 66 1007.8
20260506085408 15 109 3.2 11.3 0.00 0.03 0.00 67 1007.8
20260506084904 16 188 1.6 8.0 0.00 0.03 0.00 66 1007.8
20260506084404 15 166 4.8 8.0 0.00 0.03 0.00 67 1007.8
20260506083902 15 305 0.0 4.8 0.00 0.03 0.00 70 1007.8
20260506083403 15 300 0.0 4.8 0.00 0.03 0.00 72 1007.9
20260506082902 15 295 0.0 3.2 0.00 0.03 0.00 75 1007.9
20260506082401 14 272 0.0 3.2 0.00 0.03 0.00 75 1007.9
20260506081902 14 265 0.0 3.2 0.00 0.03 0.00 75 1007.8
20260506081402 14 307 1.6 3.2 0.00 0.03 0.00 74 1007.9
20260506080904 14 1 0.0 4.8 0.00 0.03 0.00 76 1007.8
20260506080402 13 268 0.0 4.8 0.00 0.03 0.00 76 1007.7
20260506073402 13 254 1.6 4.8 0.00 0.03 0.00 79 1008.1
20260506072903 13 278 0.0 4.8 0.00 0.03 0.00 80 1008.2
20260506072403 13 241 1.6 3.2 0.00 0.03 0.00 80 1008.3
20260506071902 13 224 1.6 3.2 0.00 0.03 0.00 80 1008.2
20260506071403 13 230 1.6 6.4 0.00 0.03 0.00 80 1008.3
20260506070902 12 155 1.6 6.4 0.00 0.03 0.00 81 1008.3
20260506070403 12 221 3.2 6.4 0.00 0.03 0.00 81 1008.5
20260506062404 11 220 1.6 4.8 0.00 0.03 0.00 85 1008.1
20260506061903 11 203 1.6 4.8 0.00 0.03 0.00 85 1008.2
20260506061402 11 210 1.6 6.4 0.00 0.03 0.00 86 1008.3
20260506060903 11 244 3.2 6.4 0.00 0.03 0.00 86 1008.5
20260506060403 11 202 1.6 8.0 0.00 0.03 0.00 87 1008.3
20260506051402 8 226 0.0 3.2 0.00 0.03 0.00 92 1008.3
20260506050901 8 219 0.0 3.2 0.00 0.03 0.00 93 1008.5
20260506050404 8 148 1.6 1.6 0.00 0.03 0.00 93 1008.6
20260506044859 8 168 0.0 1.6 0.00 0.03 0.00 93 1008.6
20260506044357 8 161 0.0 1.6 0.00 0.03 0.00 93 1008.5
20260506043857 7 161 0.0 0.0 0.00 0.03 0.00 93 1008.6
20260506043357 7 204 0.0 0.0 0.00 0.03 0.00 93 1008.6
20260506042855 7 204 0.0 0.0 0.00 0.03 0.00 93 1008.7
20260506042358 7 204 0.0 0.0 0.00 0.03 0.00 93 1008.8
20260506041851 7 204 0.0 0.0 0.00 0.03 0.00 92 1008.8
20260506041355 8 204 0.0 1.6 0.00 0.03 0.00 92 1008.9
20260506040855 8 204 0.0 1.6 0.00 0.03 0.00 93 1008.8
20260506040355 8 197 0.0 1.6 0.00 0.03 0.00 93 1008.9
20260506035852 8 196 0.0 0.0 0.00 0.03 0.00 93 1009.0
20260506035350 8 197 0.0 0.0 0.00 0.03 0.00 93 1009.0
20260506034853 8 196 0.0 0.0 0.00 0.03 0.00 92 1009.1
20260506034350 8 196 0.0 3.2 0.00 0.03 0.00 92 1009.1
20260506033849 8 197 0.0 4.8 0.00 0.03 0.00 92 1009.1
20260506033349 8 196 1.6 4.8 0.00 0.03 0.00 92 1009.2
20260506032848 8 152 0.0 3.2 0.00 0.03 0.00 92 1009.2
20260506032348 8 166 0.0 1.6 0.00 0.03 0.00 92 1009.1
20260506031849 8 149 0.0 3.2 0.00 0.03 0.00 92 1009.2
20260506031345 8 138 1.6 3.2 0.00 0.03 0.00 92 1009.1
20260506030844 8 155 0.0 3.2 0.00 0.03 0.00 92 1009.2
20260506030345 8 172 1.6 3.2 0.00 0.03 0.00 92 1009.2
20260506025843 8 157 1.6 3.2 0.00 0.03 0.00 92 1009.2
20260506025342 8 171 0.0 3.2 0.00 0.03 0.00 92 1009.3
20260506024839 8 165 0.0 4.8 0.00 0.03 0.00 92 1009.3
20260506024337 8 169 1.6 4.8 0.00 0.03 0.00 92 1009.3
20260506023839 8 164 1.6 3.2 0.00 0.03 0.00 92 1009.3
20260506023338 8 162 0.0 1.6 0.00 0.03 0.00 92 1009.3
20260506022836 8 162 0.0 3.2 0.00 0.03 0.00 92 1009.4
20260506022333 8 154 0.0 4.8 0.00 0.03 0.00 92 1009.5
20260506021335 8 157 3.2 4.8 0.00 0.03 0.00 91 1009.6
20260506020834 8 155 0.0 3.2 0.00 0.03 0.00 91 1009.5
20260506020332 8 196 0.0 3.2 0.00 0.03 0.00 91 1009.4
20260506015831 8 214 0.0 4.8 0.00 0.03 0.00 91 1009.4
20260506015332 8 164 3.2 4.8 0.00 0.03 0.00 91 1009.4
20260506014832 8 159 1.6 3.2 0.00 0.03 0.00 91 1009.4
20260506014331 9 234 0.0 3.2 0.00 0.03 0.00 91 1009.5
20260506013831 9 245 0.0 3.2 0.00 0.03 0.00 92 1009.4
20260506013330 8 250 1.6 3.2 0.00 0.03 0.00 92 1009.4
20260506012830 8 251 0.0 1.6 0.00 0.03 0.00 91 1009.6
20260506012333 8 251 0.0 1.6 0.00 0.03 0.00 91 1009.7
20260506011829 9 226 0.0 1.6 0.00 0.03 0.00 91 1009.7
20260506011330 9 203 0.0 1.6 0.00 0.03 0.00 91 1009.8
20260506010830 9 203 0.0 1.6 0.00 0.03 0.00 91 1009.8
20260506010329 9 200 0.0 0.0 0.00 0.03 0.00 91 1009.8
20260506005829 9 200 0.0 3.2 0.00 0.03 0.00 91 1009.7
20260506005330 9 200 0.0 3.2 0.00 0.03 0.00 91 1009.8
20260506004830 9 230 1.6 4.8 0.00 0.03 0.00 91 1009.8
20260506004330 9 207 1.6 4.8 0.00 0.03 0.00 90 1009.8
20260506003828 9 230 1.6 3.2 0.00 0.03 0.00 90 1009.7
20260506003332 9 243 0.0 1.6 0.00 0.03 0.00 90 1009.7
20260506002828 9 237 0.0 1.6 0.00 0.03 0.00 90 1009.7
20260506002321 9 254 0.0 3.2 0.00 0.03 0.00 90 1009.8
20260506001823 9 255 0.0 3.2 0.00 0.03 0.00 90 1009.9
20260506001322 9 243 3.2 4.8 0.00 0.03 0.00 90 1009.9
20260506000820 9 243 1.6 4.8 0.00 0.03 0.00 90 1010.0
20260506000322 9 240 1.6 3.2 0.00 0.03 0.00 89 1010.1